Regional Weather Roundup
Issued by NWS

Home | Current Version | Previous Version | Text Only | Print | Product List | Glossary On
Versions: 1 2 3 4 5 6 7 8 9 10 11 12 13 14 15 16 17 18 19 20 21 22 23 24 25 26 27 28 29 30 31 32 33 34 35 36 37 38 39 40 41 42 43 44 45 46 47 48 49
000
ASCA42 TJSJ 282310
RWRPR
PUERTO RICO/U.S. VIRGIN ISLANDS HOURLY WEATHER ROUNDUP
NATIONAL WEATHER SERVICE SAN JUAN PR
700 PM AST FRI AUG 28 2015

PRZ001-004-290000-
PUERTO RICO

CITY           SKY/WX    TMP DP  RH WIND       PRES   REMARKS
SAN JUAN LMM   PTCLDY    84  75  74 E10       30.01R HX  92
AGUADILLA      CLEAR     77  73  88 E7        29.97F
$$

PRZ006-007-290000-
U.S. VIRGIN ISLANDS

CITY           SKY/WX    TMP DP  RH WIND       PRES   REMARKS
CHARLOTTE AMA  PTCLDY    84  77  79 E9        30.00R HX  94
CHRISTIANSTED  PTCLDY    82  75  78 E10       30.00S
$$

HOURLY WEATHER ROUNDUP FOR THE NEWS MEDIA

CITY           SKY/WX    TMP DP  RH WIND       PRES   REMARKS
ORLANDO        LGT RAIN  78  78 100 SE5       30.02S
NEW YORK       PTCLDY    77  58  51 S9        30.14R
NEWARK         PTCLDY    79  52  38 W10G16    30.13S
CHICAGO        CLOUDY    71  61  70 SE6       30.07S
HARTFORD       CLEAR     71  56  58 SW7       30.11R
BOSTON         PTCLDY    71  62  73 E6        30.11S
DALLAS         MOSUNNY   96  62  32 SE7       29.91S HX  97
PHILADELPHIA   PTCLDY    82  52  35 NW8       30.14S
LOS ANGELES    MOSUNNY   84  61  45 W14       29.83F
WASHINGTON DC  PTCLDY    79  59  50 SE7       30.13F


USA.gov is the U.S. government's official web portal to all federal, state and local government web resources and services.